Location: Observatoire de Paris
(48.8363°N, 2.3365°E)
Time: 02:03:32
(UTC+01:00)

Vanguard 3 - Pass Details

Date: 01 August 2021
Orbit: 510 x 3260 km, 33.3° (Epoch: 18 September)

Event Time Altitude Azimuth Distance (km) Brightness Sun altitude
Rises 23:25:12 0° 272° (W) 6,869 12.2 -20.3°
Reaches altitude 10° 23:30:10 10° 265° (W) 6,046 11.8 -20.6°
Maximum altitude 23:46:31 35° 209° (SSW) 4,366 10.4 -21.6°
Enters shadow 23:53:50 27° 175° (S) 4,570 10.3 -21.9°
